Change the Weather History Date:

Wednesday, January 8, 2014

  Actual Average (KOTG) Record (KOTG)
Temperature  
Mean Temperature 0 °F -  
Max Temperature 8 °F 22 °F 57 °F (2003)
Min Temperature -7 °F 7 °F -20 °F (1986)
Degree Days  
Heating Degree Days 64    
Moisture  
Dew Point -5 °F    
Average Humidity 79    
Maximum Humidity 85    
Minimum Humidity 66    
Precipitation  
Precipitation 0.00 in - - ()
Sea Level Pressure  
Sea Level Pressure 30.31 in    
Wind  
Wind Speed 4 mph (South)    
Max Wind Speed 15 mph    
Max Gust Speed -    
Visibility 10 miles    
Events      
Averages and records for this station are not official NWS values.
T = Trace of Precipitation, MM = Missing Value Source: NWS Daily Summary

Daily Weather History Graph

Daily Weather History Graph

Search for Another Location

Airport or City:

Trip Planner

Search our weather history database for the weather conditions in past years. The results will help you decide how hot, cold, wet, or windy it might be!

Date:

Astronomy

Jan. 08, 2014 Rise Set
Actual Time 7:57 AM CST 5:02 PM CST
Civil Twilight 7:24 AM CST 5:35 PM CST
Nautical Twilight 6:48 AM CST 6:11 PM CST
Astronomical Twilight 6:13 AM CST 6:46 PM CST
Moon 12:02 PM CST (1/8) 12:56 AM CST (1/8)
Length of Visible Light 10h 10m
Length of Day
9h 05m
First Quarter, 56% of the Moon is Illuminated
Jan 8
First Quarter
Jan 15
Full
Jan 23
Last Quarter
Jan 30
New
Feb 6
First Quarter

Hourly Weather History & Observations

Time (CST) Temp. Windchill Dew Point Humidity Pressure Visibility Wind Dir Wind Speed Gust Speed Precip Events Conditions
12:05 AM -5.8 °F -16.7 °F -9.4 °F 84% 30.22 in 10.0 mi WNW 4.6 mph - N/A   Clear
12:25 AM -4.0 °F -12.4 °F -9.4 °F 78% 30.22 in 10.0 mi West 3.5 mph - N/A   Clear
12:45 AM -4.0 °F -12.4 °F -9.4 °F 78% 30.22 in 10.0 mi West 3.5 mph - N/A   Clear
1:05 AM -4.0 °F -12.4 °F -9.4 °F 78% 30.22 in 10.0 mi NW 3.5 mph - N/A   Clear
1:25 AM -5.8 °F -18.4 °F -11.2 °F 77% 30.23 in 10.0 mi WNW 5.8 mph - N/A   Clear
1:45 AM -5.8 °F -14.5 °F -11.2 °F 77% 30.23 in 10.0 mi WNW 3.5 mph - N/A   Clear
2:05 AM -5.8 °F -14.5 °F -11.2 °F 77% 30.24 in 10.0 mi WNW 3.5 mph - N/A   Mostly Cloudy
2:25 AM -5.8 °F -16.7 °F -11.2 °F 77% 30.24 in 10.0 mi NW 4.6 mph - N/A   Overcast
2:45 AM -4.0 °F -14.6 °F -9.4 °F 78% 30.25 in 10.0 mi NNW 4.6 mph - N/A   Overcast
3:05 AM -2.2 °F -10.4 °F -7.6 °F 78% 30.26 in 10.0 mi WNW 3.5 mph - N/A   Overcast
3:25 AM -4.0 °F -12.4 °F -7.6 °F 85% 30.26 in 10.0 mi WNW 3.5 mph - N/A   Scattered Clouds
3:45 AM -4.0 °F - -7.6 °F 85% 30.26 in 10.0 mi Calm Calm - N/A   Scattered Clouds
4:05 AM -4.0 °F -14.6 °F -7.6 °F 85% 30.26 in 10.0 mi NW 4.6 mph - N/A   Overcast
4:25 AM -2.2 °F -12.5 °F -7.6 °F 78% 30.27 in 10.0 mi WNW 4.6 mph - N/A   Overcast
4:45 AM -2.2 °F -14.2 °F -5.8 °F 85% 30.27 in 10.0 mi NW 5.8 mph - N/A   Overcast
5:05 AM -2.2 °F -12.5 °F -5.8 °F 85% 30.26 in 10.0 mi NNW 4.6 mph - N/A   Scattered Clouds
5:25 AM -4.0 °F -14.6 °F -7.6 °F 85% 30.27 in 10.0 mi WNW 4.6 mph - N/A   Clear
5:45 AM -4.0 °F -14.6 °F -9.4 °F 78% 30.27 in 10.0 mi West 4.6 mph - N/A   Clear
6:05 AM -4.0 °F - -9.4 °F 78% 30.28 in 10.0 mi Calm Calm - N/A   Clear
7:05 AM -5.8 °F - -9.4 °F 84% 30.30 in 10.0 mi Calm Calm - N/A   Clear
7:25 AM -5.8 °F - -11.2 °F 77% 30.30 in 10.0 mi Calm Calm - N/A   Clear
7:45 AM -7.6 °F -18.8 °F -13.0 °F 77% 30.30 in 10.0 mi NW 4.6 mph - N/A   Clear
8:05 AM -7.6 °F - -11.2 °F 84% 30.31 in 10.0 mi Calm Calm - N/A   Clear
8:25 AM -7.6 °F - -13.0 °F 77% 30.32 in 7.0 mi Calm Calm - N/A   Clear
8:45 AM -7.6 °F -18.8 °F -11.2 °F 84% 30.33 in 10.0 mi NNW 4.6 mph - N/A   Clear
9:05 AM -7.6 °F - -13.0 °F 77% 30.34 in 10.0 mi Calm Calm - N/A   Clear
9:25 AM -5.8 °F - -11.2 °F 77% 30.35 in 10.0 mi Calm Calm - N/A   Clear
9:45 AM -4.0 °F -12.4 °F -7.6 °F 85% 30.36 in 10.0 mi SSW 3.5 mph - N/A   Clear
10:05 AM -2.2 °F - -7.6 °F 78% 30.37 in 10.0 mi Calm Calm - N/A   Clear
10:25 AM -0.4 °F - -5.8 °F 78% 30.37 in 10.0 mi Calm Calm - N/A   Clear
10:45 AM -0.4 °F - -4.0 °F 85% 30.38 in 10.0 mi Calm Calm - N/A   Clear
11:05 AM 1.4 °F - -5.8 °F 72% 30.38 in 10.0 mi Calm Calm - N/A   Clear
11:25 AM 1.4 °F -8.3 °F -4.0 °F 78% 30.38 in 10.0 mi SSE 4.6 mph - N/A   Clear
11:45 AM 3.2 °F - -4.0 °F 72% 30.38 in 10.0 mi Calm Calm - N/A   Clear
12:05 PM 3.2 °F - -4.0 °F 72% 30.37 in 10.0 mi Calm Calm - N/A   Clear
12:25 PM 3.2 °F - -4.0 °F 72% 30.36 in 10.0 mi Calm Calm - N/A   Scattered Clouds
12:45 PM 3.2 °F - -4.0 °F 72% 30.35 in 10.0 mi Calm Calm - N/A   Mostly Cloudy
1:05 PM 3.2 °F - -4.0 °F 72% 30.35 in 10.0 mi Calm Calm - N/A   Scattered Clouds
1:25 PM 5.0 °F - -4.0 °F 66% 30.34 in 10.0 mi Calm Calm - N/A   Clear
1:45 PM 5.0 °F - -4.0 °F 66% 30.34 in 10.0 mi Calm Calm - N/A   Clear
2:05 PM 5.0 °F - -2.2 °F 72% 30.34 in 10.0 mi Calm Calm - N/A   Clear
2:25 PM 5.0 °F - -2.2 °F 72% 30.34 in 10.0 mi Calm Calm - N/A   Clear
2:45 PM 5.0 °F - -2.2 °F 72% 30.35 in 10.0 mi Calm Calm - N/A   Clear
3:05 PM 5.0 °F -4.1 °F -2.2 °F 72% 30.35 in 10.0 mi South 4.6 mph - N/A   Clear
3:25 PM 5.0 °F -2.1 °F -2.2 °F 72% 30.35 in 10.0 mi SSE 3.5 mph - N/A   Clear
3:45 PM 5.0 °F -2.1 °F -2.2 °F 72% 30.35 in 10.0 mi SE 3.5 mph - N/A   Clear
4:05 PM 3.2 °F -7.8 °F -2.2 °F 78% 30.35 in 10.0 mi SSE 5.8 mph - N/A   Clear
4:25 PM 3.2 °F -7.8 °F -4.0 °F 72% 30.34 in 10.0 mi SSE 5.8 mph - N/A   Clear
4:45 PM 1.4 °F -11.3 °F -4.0 °F 78% 30.35 in 10.0 mi SE 6.9 mph - N/A   Mostly Cloudy
5:05 PM 1.4 °F -9.9 °F -4.0 °F 78% 30.34 in 10.0 mi SE 5.8 mph - N/A   Overcast
5:25 PM 1.4 °F -11.3 °F -2.2 °F 85% 30.35 in 10.0 mi SSE 6.9 mph - N/A   Overcast
5:45 PM 1.4 °F -12.5 °F -2.2 °F 85% 30.34 in 10.0 mi SSE 8.1 mph - N/A   Overcast
6:05 PM 1.4 °F -13.5 °F -2.2 °F 85% 30.33 in 10.0 mi SE 9.2 mph - N/A   Overcast
6:25 PM 1.4 °F -13.5 °F -2.2 °F 85% 30.34 in 10.0 mi SE 9.2 mph - N/A   Overcast
6:45 PM 1.4 °F -12.5 °F -2.2 °F 85% 30.34 in 10.0 mi SE 8.1 mph - N/A   Overcast
7:05 PM 1.4 °F -11.3 °F -2.2 °F 85% 30.35 in 10.0 mi SSE 6.9 mph - N/A   Overcast
7:25 PM 3.2 °F -11.3 °F -2.2 °F 78% 30.34 in 10.0 mi SE 9.2 mph - N/A   Overcast
7:45 PM 3.2 °F -10.3 °F -2.2 °F 78% 30.33 in 10.0 mi SE 8.1 mph - N/A   Overcast
8:05 PM 3.2 °F -12.2 °F -2.2 °F 78% 30.32 in 10.0 mi SE 10.4 mph - N/A   Overcast
8:25 PM 3.2 °F -11.3 °F -0.4 °F 85% 30.33 in 10.0 mi SSE 9.2 mph - N/A   Overcast
8:45 PM 3.2 °F -13.1 °F -0.4 °F 85% 30.33 in 10.0 mi SSE 11.5 mph - N/A   Overcast
9:05 PM 5.0 °F -11.6 °F -0.4 °F 78% 30.32 in 10.0 mi SSE 12.7 mph - N/A   Overcast
9:25 PM 5.0 °F -12.3 °F -0.4 °F 78% 30.31 in 10.0 mi SSE 13.8 mph - N/A   Overcast
9:45 PM 5.0 °F -12.3 °F 1.4 °F 85% 30.31 in 10.0 mi SSE 13.8 mph - N/A   Overcast
10:05 PM 6.8 °F -10.0 °F 1.4 °F 79% 30.30 in 10.0 mi SSE 13.8 mph - N/A   Overcast
10:25 PM 6.8 °F -10.7 °F 1.4 °F 79% 30.30 in 10.0 mi SSE 15.0 mph - N/A   Overcast
10:45 PM 6.8 °F -10.7 °F 3.2 °F 85% 30.30 in 10.0 mi South 15.0 mph - N/A   Overcast
11:05 PM 8.6 °F -8.3 °F 3.2 °F 79% 30.29 in 10.0 mi South 15.0 mph - N/A   Overcast
11:25 PM 8.6 °F -7.0 °F 3.2 °F 79% 30.29 in 10.0 mi South 12.7 mph - N/A   Overcast
11:45 PM 8.6 °F -8.3 °F 3.2 °F 79% 30.28 in 10.0 mi South 15.0 mph - N/A   Overcast